Weather reports worldwide

Advertisment
Newton Rigg, United Kingdom (99152): temperature & dewpoint: 16.07.2019 03:00:00 - 22.07.2019 03:00:00 (BST)Newton Rigg, United Kingdom (99152): temperature -20cm & temperature -100cm: 16.07.2019 03:00:00 - 22.07.2019 03:00:00 (BST)Newton Rigg, United Kingdom (99152): precipitation: 16.07.2019 03:00:00 - 22.07.2019 03:00:00 (BST)
Date & Time tt [°C] td [°C] tt -20cm [°C] tt -100cm [°C] rr [mm]
22.07.2019 03:00:00 17,8 16,4 - - 1,0
22.07.2019 02:00:00 17,7 16,5 - - 1,8
22.07.2019 01:00:00 16,1 15,5 - - 3,8
22.07.2019 00:00:00 15,6 14,4 - - 2,2
21.07.2019 23:00:00 15,2 14,1 - - 2,0
21.07.2019 22:00:00 15,2 14,0 - - 1,2
21.07.2019 21:00:00 15,7 14,2 - - 1,2
21.07.2019 20:00:00 16,2 13,4 - - 0,2
21.07.2019 19:00:00 17,2 12,5 - - 0,0
21.07.2019 18:00:00 17,3 12,3 - - 0,0
21.07.2019 17:00:00 17,2 12,7 - - 0,0
21.07.2019 16:00:00 16,6 13,0 - - 0,0
21.07.2019 15:00:00 17,2 12,6 - - 0,0
21.07.2019 14:00:00 17,5 11,9 - - 0,0
21.07.2019 13:00:00 17,2 11,4 - - 0,0
21.07.2019 12:00:00 16,5 11,5 - - 0,0
21.07.2019 11:00:00 16,7 12,3 - - 0,0
21.07.2019 10:00:00 16,5 12,3 16,4 14,7 0,0
21.07.2019 09:00:00 16,4 12,0 - - 0,0
21.07.2019 08:00:00 15,8 12,6 - - 0,0
21.07.2019 07:00:00 13,6 11,3 - - 0,0
21.07.2019 06:00:00 13,0 11,1 - - 0,0
21.07.2019 05:00:00 12,3 10,3 - - 0,0
21.07.2019 04:00:00 13,0 10,1 - - 0,0
21.07.2019 03:00:00 13,4 10,1 - - 0,0
21.07.2019 02:00:00 11,0 10,0 - - 0,0
21.07.2019 01:00:00 10,5 9,2 - - 0,0
21.07.2019 00:00:00 11,1 9,4 - - 0,0
20.07.2019 23:00:00 11,9 8,7 - - 0,0
20.07.2019 22:00:00 13,5 8,8 - - 0,0
20.07.2019 21:00:00 15,2 8,8 - - 0,0
20.07.2019 20:00:00 16,0 9,3 - - 0,0
20.07.2019 19:00:00 17,9 10,6 - - 0,0
20.07.2019 18:00:00 17,4 10,7 - - 0,0
20.07.2019 17:00:00 17,6 11,3 - - 0,0
20.07.2019 16:00:00 17,7 12,8 - - 0,0
20.07.2019 15:00:00 17,1 13,7 - - 0,0
20.07.2019 14:00:00 17,9 14,2 - - 0,0
20.07.2019 13:00:00 18,7 14,4 - - 0,2
20.07.2019 12:00:00 17,6 14,6 - - 0,0
20.07.2019 11:00:00 17,8 15,3 - - 0,0
20.07.2019 10:00:00 16,3 15,4 16,2 14,7 0,0
20.07.2019 09:00:00 15,1 14,7 - - 1,6
20.07.2019 08:00:00 14,5 14,0 - - 4,4
20.07.2019 07:00:00 15,0 13,6 - - 0,0
20.07.2019 06:00:00 15,0 13,7 - - 0,2
20.07.2019 05:00:00 15,2 14,4 - - 2,6
20.07.2019 04:00:00 15,7 14,6 - - 0,4
20.07.2019 03:00:00 15,5 14,8 - - 0,4
20.07.2019 02:00:00 15,6 14,1 - - 0,0
20.07.2019 01:00:00 16,0 14,5 - - 0,2
20.07.2019 00:00:00 16,0 14,5 - - 0,2
19.07.2019 23:00:00 16,2 14,1 - - 0,0
19.07.2019 22:00:00 16,2 14,6 - - 0,2
19.07.2019 21:00:00 16,6 14,6 - - 0,0
19.07.2019 20:00:00 17,2 14,8 - - 0,2
19.07.2019 19:00:00 16,4 16,0 - - 1,2
19.07.2019 18:00:00 15,9 15,1 - - 0,4
19.07.2019 17:00:00 16,6 14,7 - - 0,0
19.07.2019 16:00:00 15,9 14,3 - - 1,4
19.07.2019 15:00:00 16,1 12,6 - - 0,0
19.07.2019 14:00:00 16,3 12,4 - - 0,0
19.07.2019 13:00:00 15,8 11,7 - - 0,0
19.07.2019 12:00:00 16,2 11,9 - - 0,0
19.07.2019 11:00:00 15,7 11,3 - - 0,0
19.07.2019 10:00:00 15,1 12,9 16,2 14,7 0,2
19.07.2019 09:00:00 15,5 12,9 - - 0,0
19.07.2019 08:00:00 14,9 12,9 - - 0,0
19.07.2019 07:00:00 13,5 13,0 - - 0,0
19.07.2019 06:00:00 12,7 12,0 - - 0,4
19.07.2019 05:00:00 12,0 11,0 - - 0,0
19.07.2019 04:00:00 13,1 11,7 - - 0,0
19.07.2019 03:00:00 12,8 11,1 - - 0,0
19.07.2019 02:00:00 12,9 11,2 - - 0,0
19.07.2019 01:00:00 13,0 10,7 - - 0,0
19.07.2019 00:00:00 12,6 11,1 - - 0,0
18.07.2019 23:00:00 13,1 10,8 - - 0,0
18.07.2019 22:00:00 13,6 10,4 - - 0,0
18.07.2019 21:00:00 14,8 10,6 - - 0,0
18.07.2019 20:00:00 15,2 10,3 - - 0,0
18.07.2019 19:00:00 15,8 10,9 - - 0,0
18.07.2019 18:00:00 15,3 11,4 - - 0,0
18.07.2019 17:00:00 16,7 10,3 - - 0,0
18.07.2019 16:00:00 18,4 10,6 - - 0,0
18.07.2019 15:00:00 17,6 10,8 - - 0,0
18.07.2019 14:00:00 17,5 11,3 - - 0,0
18.07.2019 13:00:00 16,3 10,2 - - 0,0
18.07.2019 12:00:00 17,0 11,2 - - 0,0
18.07.2019 11:00:00 15,2 11,4 - - 0,0
18.07.2019 10:00:00 14,1 12,6 16,4 14,7 0,2
18.07.2019 09:00:00 14,1 10,4 - - 0,0
18.07.2019 08:00:00 14,2 11,6 - - 0,0
18.07.2019 07:00:00 12,3 10,8 - - 0,0
18.07.2019 06:00:00 10,0 8,9 - - 0,0
18.07.2019 05:00:00 10,8 9,5 - - 0,0
18.07.2019 04:00:00 12,2 10,1 - - 0,0
18.07.2019 03:00:00 12,5 10,2 - - 0,0
18.07.2019 02:00:00 13,0 11,9 - - 0,6
18.07.2019 01:00:00 14,4 13,9 - - 0,2
18.07.2019 00:00:00 14,9 13,6 - - 0,0
17.07.2019 23:00:00 14,8 13,2 - - 0,0
17.07.2019 22:00:00 14,6 13,0 - - 0,0
17.07.2019 21:00:00 14,7 12,8 - - 0,0
17.07.2019 20:00:00 14,9 12,8 - - 0,0
17.07.2019 19:00:00 14,7 12,6 - - 0,0
17.07.2019 18:00:00 14,7 12,9 - - 0,4
17.07.2019 17:00:00 14,9 12,8 - - 0,4
17.07.2019 16:00:00 16,0 10,9 - - 0,0
17.07.2019 15:00:00 16,6 11,4 - - 0,0
17.07.2019 14:00:00 17,4 12,3 - - 0,0
17.07.2019 13:00:00 17,5 12,3 - - 0,0
17.07.2019 12:00:00 17,2 12,9 - - 0,0
17.07.2019 11:00:00 17,8 12,4 - - 0,0
17.07.2019 10:00:00 17,5 13,1 16,7 14,7 0,0
17.07.2019 09:00:00 16,4 12,8 - - 0,0
17.07.2019 08:00:00 15,4 12,5 - - 0,0
17.07.2019 07:00:00 13,9 12,1 - - 0,0
17.07.2019 06:00:00 13,2 11,5 - - 0,0
17.07.2019 05:00:00 12,6 11,2 - - 0,0
17.07.2019 04:00:00 13,0 11,5 - - 0,0
17.07.2019 03:00:00 12,5 11,5 - - 0,0
17.07.2019 02:00:00 12,8 11,6 - - 0,0
17.07.2019 01:00:00 13,5 11,5 - - 0,0
17.07.2019 00:00:00 14,7 11,9 - - 0,0
16.07.2019 23:00:00 16,0 11,9 - - 0,0
16.07.2019 22:00:00 16,9 12,4 - - 0,0
16.07.2019 21:00:00 17,8 12,5 - - 0,0
16.07.2019 20:00:00 19,2 12,4 - - 0,0
16.07.2019 19:00:00 19,7 13,2 - - 0,0
16.07.2019 18:00:00 19,4 12,5 - - 0,0
16.07.2019 17:00:00 20,0 11,8 - - 0,0
16.07.2019 16:00:00 22,4 11,5 - - 0,0
16.07.2019 15:00:00 22,0 11,5 - - 0,0
16.07.2019 14:00:00 20,8 12,2 - - 0,0
16.07.2019 13:00:00 20,7 13,2 - - 0,0
16.07.2019 12:00:00 19,7 13,8 - - 0,0
16.07.2019 11:00:00 19,6 13,9 - - 0,0
16.07.2019 10:00:00 19,0 14,4 16,7 14,7 0,0
16.07.2019 09:00:00 16,1 14,1 - - 0,0
16.07.2019 08:00:00 14,6 13,3 - - 0,0
16.07.2019 07:00:00 12,3 12,1 - - 0,0
16.07.2019 06:00:00 10,6 10,4 - - 0,0
16.07.2019 05:00:00 10,0 9,7 - - 0,0
16.07.2019 04:00:00 9,5 9,2 - - 0,0
16.07.2019 03:00:00 10,1 9,7 - - 0,0

tt = temperature
td = dewpoint
tt -20cm = temperature -20cm
tt -100cm = temperature -100cm
rr = precipitation

Next stations